Powrót do katalogu

STARLINK-5293

AktywnyŁącznośćVLEO
NORAD 55295·PAYLOAD·🇺🇸 United States

Wystrzelony Jan 19, 2023 z Vandenberg Space Force Base

Loading…

Następne Przeloty (najbliższe 24 godziny)

TLE

ŚwieżeSource: CelesTrak SupGP

Epoka: Sep 14, 2026, 21:12 UTC

1 55295C 23010AC  26257.88381944  .00044844  00000+0  37584-2 0  2578
2 55295  69.9992 287.5608 0003655 267.8058  36.1860 14.98303862    12

Śledź STARLINK-5293 w czasie rzeczywistym z AllMySat

Download on the App Store